Akron, OH

9:11 AM EST on February 24, 2018 (GMT -0500)
Akron Fulton International

Weather History for KAKR - September, 2013

Change the Weather History Date:

Friday, September 13, 2013

  Actual Average (KCAK) Record (KCAK)
Temperature  
Mean Temperature 56 °F -  
Max Temperature 62 °F 76 °F 93 °F (1897)
Min Temperature 51 °F 55 °F 37 °F (1975)
Degree Days  
Heating Degree Days 10    
Growing Degree Days 6 (Base 50)    
Moisture  
Dew Point 52 °F    
Average Humidity 83    
Maximum Humidity 100    
Minimum Humidity 59    
Precipitation  
Precipitation 0.10 in - - ()
Sea Level Pressure  
Sea Level Pressure 29.97 in    
Wind  
Wind Speed 7 mph (NNW)    
Max Wind Speed 17 mph    
Max Gust Speed 25 mph    
Visibility 10 miles    
Events Rain    
Averages and records for this station are not official NWS values.
T = Trace of Precipitation, MM = Missing Value Source: NWS Daily Summary

Daily Weather History Graph

Daily Weather History Graph

Search for Another Location

Airport or City:

Trip Planner

Search our weather history database for the weather conditions in past years. The results will help you decide how hot, cold, wet, or windy it might be!

Date:

Astronomy

Sep. 13, 2013 Rise Set
Actual Time 7:04 AM EDT 7:38 PM EDT
Civil Twilight 6:36 AM EDT 8:05 PM EDT
Nautical Twilight 6:04 AM EDT 8:38 PM EDT
Astronomical Twilight 5:30 AM EDT 9:11 PM EDT
Moon 3:28 PM EDT (9/13) 12:30 AM EDT (9/13)
Length of Visible Light 13h 28m
Length of Day
12h 33m
First Quarter, 61% of the Moon is Illuminated
Sep 13
First Quarter
Sep 19
Full
Sep 26
Last Quarter
Oct 4
New
Oct 11
First Quarter

Hourly Weather History & Observations

Time (EDT) Temp. Dew Point Humidity Pressure Visibility Wind Dir Wind Speed Gust Speed Precip Events Conditions
12:08 AM 59.0 °F 57.2 °F 94% 29.91 in 5.0 mi NNW 4.6 mph - 0.02 in Rain Light Rain
12:54 AM 59.0 °F 57.0 °F 93% 29.88 in 10.0 mi Calm Calm - 0.06 in Rain Light Rain
1:54 AM 57.0 °F 57.0 °F 100% 29.87 in 8.0 mi North 5.8 mph - 0.00 in   Mostly Cloudy
2:54 AM 60.1 °F 57.9 °F 93% 29.88 in 10.0 mi NW 4.6 mph - 0.00 in Rain Light Rain
3:26 AM 59.0 °F 57.2 °F 94% 29.89 in 10.0 mi NNW 4.6 mph - 0.00 in   Overcast
3:54 AM 59.0 °F 57.0 °F 93% 29.88 in 10.0 mi NNW 5.8 mph - 0.00 in   Overcast
4:28 AM 57.2 °F 55.4 °F 94% 29.90 in 10.0 mi NNW 6.9 mph - N/A   Mostly Cloudy
4:54 AM 57.0 °F 55.0 °F 93% 29.89 in 10.0 mi NW 6.9 mph - N/A   Scattered Clouds
5:45 AM 57.2 °F 53.6 °F 88% 29.91 in 10.0 mi NNW 6.9 mph - N/A   Mostly Cloudy
5:54 AM 57.0 °F 54.0 °F 89% 29.90 in 10.0 mi NNW 8.1 mph - N/A   Mostly Cloudy
6:54 AM 57.0 °F 54.0 °F 89% 29.91 in 10.0 mi NW 8.1 mph - N/A   Overcast
7:23 AM 57.2 °F 53.6 °F 88% 29.93 in 10.0 mi WNW 9.2 mph - N/A   Overcast
7:54 AM 57.0 °F 54.0 °F 89% 29.93 in 10.0 mi NW 9.2 mph - N/A   Overcast
8:24 AM 57.2 °F 53.6 °F 88% 29.94 in 9.0 mi NNW 9.2 mph - 0.00 in   Overcast
8:31 AM 55.4 °F 53.6 °F 94% 29.94 in 10.0 mi NW 10.4 mph - 0.00 in Rain Light Rain
8:54 AM 57.9 °F 54.0 °F 87% 29.93 in 10.0 mi WNW 6.9 mph - 0.00 in   Overcast
9:05 AM 57.2 °F 53.6 °F 88% 29.94 in 10.0 mi WNW 6.9 mph - N/A   Overcast
9:39 AM 57.2 °F 53.6 °F 88% 29.95 in 10.0 mi NNW 10.4 mph - N/A   Overcast
9:54 AM 57.9 °F 53.1 °F 84% 29.94 in 10.0 mi NNW 10.4 mph - N/A   Overcast
10:41 AM 59.0 °F 53.6 °F 82% 29.96 in 10.0 mi North 10.4 mph - N/A   Overcast
10:54 AM 59.0 °F 53.1 °F 81% 29.96 in 10.0 mi North 10.4 mph 17.3 mph N/A   Overcast
11:20 AM 57.2 °F 53.6 °F 88% 29.97 in 2.0 mi North 6.9 mph - 0.03 in Rain Light Rain
11:31 AM 55.4 °F 53.6 °F 94% 29.98 in 5.0 mi NNW 8.1 mph - 0.04 in Rain Light Rain
11:42 AM 57.2 °F 53.6 °F 88% 29.98 in 10.0 mi North 10.4 mph - 0.04 in   Overcast
11:51 AM 57.2 °F 53.6 °F 88% 29.98 in 10.0 mi North 11.5 mph - 0.04 in   Overcast
11:54 AM 57.9 °F 54.0 °F 87% 29.98 in 10.0 mi North 10.4 mph - 0.04 in   Overcast
12:54 PM 57.9 °F 51.1 °F 78% 29.99 in 10.0 mi NNE 13.8 mph - N/A   Overcast
1:33 PM 57.2 °F 48.2 °F 72% 29.99 in 10.0 mi North 17.3 mph 24.2 mph N/A   Overcast
1:54 PM 57.0 °F 50.0 °F 77% 30.00 in 10.0 mi NNW 13.8 mph 20.7 mph 0.00 in   Overcast
2:54 PM 57.9 °F 50.0 °F 75% 29.99 in 10.0 mi North 12.7 mph - 0.00 in   Overcast
3:28 PM 57.2 °F 48.2 °F 72% 29.99 in 10.0 mi NNE 12.7 mph 18.4 mph 0.00 in   Overcast
3:54 PM 57.9 °F 50.0 °F 75% 29.99 in 10.0 mi North 11.5 mph 20.7 mph 0.00 in   Overcast
4:49 PM 60.8 °F 48.2 °F 63% 30.00 in 10.0 mi North 10.4 mph 18.4 mph N/A   Overcast
4:54 PM 59.0 °F 48.0 °F 67% 30.00 in 10.0 mi North 12.7 mph 21.9 mph N/A   Overcast
5:12 PM 59.0 °F 44.6 °F 59% 30.01 in 10.0 mi North 16.1 mph 25.3 mph N/A   Overcast
5:54 PM 57.9 °F 46.0 °F 65% 30.01 in 10.0 mi North 13.8 mph 21.9 mph N/A   Overcast
6:54 PM 55.9 °F 46.0 °F 69% 30.03 in 10.0 mi NNW 10.4 mph - N/A   Overcast
7:54 PM 55.0 °F 46.0 °F 72% 30.04 in 10.0 mi NNW 9.2 mph - N/A   Overcast
8:54 PM 52.0 °F 46.9 °F 83% 30.07 in 10.0 mi NNE 5.8 mph - 0.00 in Rain Light Rain
9:54 PM 52.0 °F 46.0 °F 80% 30.07 in 10.0 mi North 5.8 mph - 0.00 in   Overcast
10:31 PM 53.6 °F 46.4 °F 77% 30.08 in 10.0 mi NNE 8.1 mph - N/A   Overcast
10:54 PM 51.1 °F 46.0 °F 83% 30.08 in 10.0 mi North 4.6 mph - 0.00 in   Overcast
11:54 PM 52.0 °F 46.9 °F 83% 30.08 in 10.0 mi North 3.5 mph - N/A   Overcast